Date,TemperatureHighF,TemperatureAvgF,TemperatureLowF,DewpointHighF,DewpointAvgF,DewpointLowF,HumidityHigh,HumidityAvg,HumidityLow,PressureMaxIn,PressureMinIn,WindSpeedMaxMPH,WindSpeedAvgMPH,GustSpeedMaxMPH,PrecipitationSumIn
2013-9-10,73.4,73.1,72.1,70.5,70.3,69.4,91,91,90,30.10,30.09,0,0,0,0.08
2013-9-11,93.7,81.0,69.6,77.1,72.1,66.9,99,77,46,30.09,29.94,0,0,0,0.00
2013-9-12,87.6,79.1,69.3,74.9,71.5,67.2,97,78,59,29.98,29.68,0,0,0,1.15
2013-9-13,78.3,70.1,63.9,70.0,66.4,58.3,99,89,66,29.76,29.56,0,0,0,0.17
2013-9-14,67.8,63.2,57.0,58.3,54.7,51.7,85,74,63,30.08,29.76,0,0,0,0.00
2013-9-15,71.4,61.7,52.2,53.9,50.5,46.4,92,69,43,30.19,30.08,0,0,0,0.00
2013-9-16,68.4,60.4,51.6,56.2,51.2,40.0,85,72,56,30.27,30.04,0,0,0,0.01
2013-9-17,62.4,53.7,43.9,45.5,39.5,34.1,79,60,38,30.45,30.28,0,0,0,0.00
2013-9-18,72.3,59.3,46.6,50.4,45.5,40.7,92,64,32,30.36,30.16,0,0,0,0.00
2013-9-19,76.8,65.1,52.7,55.3,52.7,49.3,88,66,44,30.16,30.05,0,0,0,0.00
2013-9-20,76.6,65.0,54.3,58.8,56.1,52.1,93,74,53,30.11,30.02,0,0,0,0.00
2013-9-21,76.3,67.4,58.1,66.5,61.2,55.5,97,81,58,30.05,29.74,0,0,0,0.00
2013-9-22,71.4,66.3,56.1,68.4,58.9,48.3,98,79,50,29.85,29.62,0,0,0,0.58
2013-9-23,62.6,55.3,49.5,47.1,42.9,40.4,78,64,51,30.02,29.85,0,0,0,0.00
2013-9-24,66.0,55.4,46.4,46.4,43.1,40.8,84,65,43,30.02,29.83,0,0,0,0.00
2013-9-25,65.1,57.0,48.9,51.3,47.9,45.2,88,72,56,30.01,29.90,0,0,0,0.00
2013-9-26,64.9,59.4,55.0,52.7,49.7,47.0,81,71,56,30.15,30.01,0,0,0,0.00
2013-9-27,66.2,62.1,57.4,53.7,52.4,51.3,82,71,62,30.25,30.15,0,0,0,0.00
2013-9-28,65.5,65.5,65.5,52.6,52.6,52.6,63,63,63,30.23,30.23,0,0,0,0.00
2013-9-29,65.5,65.5,65.5,52.6,52.6,52.6,63,63,63,30.23,30.23,0,0,0,0.00
2013-9-30,90.7,68.3,53.8,77.7,57.4,49.7,90,69,57,30.23,29.71,0,0,0,6.48